Regional Weather Roundup
Issued by NWS

Home | Current Version | Previous Version | Graphics & Text | Print | Product List | Glossary On
Versions: 1 2 3 4 5 6 7 8 9 10 11 12 13 14 15 16 17 18 19 20 21 22 23 24 25 26 27 28 29 30 31 32 33 34 35 36 37 38 39 40 41 42 43 44 45 46 47 48 49 50
000
ASUS43 KMPX 042110
RWRMN
WEATHER ROUNDUP FOR MINNESOTA
NATIONAL WEATHER SERVICE TWIN CITIES/CHANHASSEN MN
400 PM CDT TUE AUG 04 2015


NOTE: "FAIR" INDICATES FEW OR NO CLOUDS BELOW 12,000 FEET WITH NO
SIGNIFICANT WEATHER AND/OR OBSTRUCTIONS TO VISIBILITY. N/A MEANS
CURRENT SKY AND/OR WEATHER CONDITIONS ARE NOT AVAILABLE.

MNZ060>063-068>070-042200-
   Twin Cities Metro

CITY           SKY/WX    TMP DP  RH WIND       PRES   REMARKS
TWIN CITIES    MOSUNNY   81  51  35 NW10      29.97S
ST PAUL        PTSUNNY   82  51  34 W9G17     29.97S
CRYSTAL        PTSUNNY   81  51  35 W10       29.96S
BLAINE         PTSUNNY   79  52  38 NW9       29.97S
LAKEVILLE      SUNNY     77  54  44 W7        29.99S
EDEN PRAIRIE   MOSUNNY   82  50  32 NW10      29.97F
SOUTH ST PAUL  MOSUNNY   80  48  31 W7        29.97S
LAKE ELMO      FAIR      77  52  41 N7        29.99S
$$
MNZ001>005-007-008-013>017-022>024-027-028-042200-
   Northwest Minnesota

CITY           SKY/WX    TMP DP  RH WIND       PRES   REMARKS
BEMIDJI        SUNNY     73  52  47 N7        30.01S
HALLOCK        SUNNY     73  50  43 N5        30.01F
ROSEAU         SUNNY     72  55  56 CALM      30.02F
WARROAD        SUNNY     64  55  72 E7        30.04F
THIEF RVR FALL SUNNY     73  50  43 N9        30.02S
CROOKSTON      SUNNY     75  52  43 NE6G16    30.01S
FOSSTON        SUNNY     77  48  36 N3        30.02S
DETROIT LAKES  SUNNY     77  50  38 N7        30.02S
MOORHEAD       SUNNY     77  52  41 NW6       30.00S
PARK RAPIDS    SUNNY     77  50  38 N9G17     30.00R
MAHNOMEN       FAIR      74  56  53 N8        30.00F
$$
MNZ006-009>011-018-025>026-042200-
   North Central Minnesota

CITY           SKY/WX    TMP DP  RH WIND       PRES   REMARKS
BAUDETTE       SUNNY     68  50  52 N10       30.03S
FLAG ISLAND    SUNNY     64  48  55 N3        30.03S
INTL FALLS     CLOUDY    65  49  56 NE6       30.03S
WASKISH        MOSUNNY   72  54  53 NW8       30.02S
BIG FORK       SUNNY     70  50  49 N3        30.02R
LONGVILLE      MOSUNNY   73  54  49 N7        30.00S
GRAND RAPIDS   PTSUNNY   73  48  40 NW12      30.01S
CRANE LAKE     CLOUDY    63  48  59 VRB3      30.05R
ORR            PTSUNNY   64  46  52 NW3       30.01S
COOK           MOSUNNY   66  50  55 N7        30.02F
WALKER         FAIR      73  54  51 N8        30.00S
$$
MNZ012-019>021-037-042200-
   Northeast Minnesota

CITY           SKY/WX    TMP DP  RH WIND       PRES   REMARKS
DULUTH         MOSUNNY   74  50  42 NW10G18   29.99S
ELY            CLOUDY    63  48  59 N3        30.03R
HIBBING        PTSUNNY   72  49  44 N10       30.00S
EVELETH        MOSUNNY   70  50  49 NW9       30.01S
DULUTH HARBOR  MOSUNNY   63  54  72 E10       29.98S
TWO HARBORS    PTSUNNY   73  55  53 W6        29.97R
SILVER BAY     CLOUDY    70  50  49 N8        29.98S
GRAND MARAIS     N/A     54  49  83 SW5       29.99R
G MARAIS ARPRT CLOUDY    61  46  59 NW7       30.03R
$$
MNZ029>031-032-039>041-046>048-054>057-064-042200-
   West Central Minnesota

CITY           SKY/WX    TMP DP  RH WIND       PRES   REMARKS
FERGUS FALLS   SUNNY     79  52  38 N6        29.99R
WHEATON        SUNNY     77  50  38 NW5       30.01S
MORRIS         SUNNY     81  52  36 N5        29.99S
ALEXANDRIA     SUNNY     79  49  34 N3        30.02R
ELBOW LAKE     FAIR      78  51  38 N6        30.00S
WADENA         SUNNY     79  48  34 W9G16     30.00R
GLENWOOD       SUNNY     79  46  31 CALM      30.01F
APPLETON       MOSUNNY   81  48  32 W6        29.99S
BENSON         SUNNY     81  46  30 CALM      29.99F
ORTONVILLE     MOSUNNY   81  48  32 CALM      30.00S
MADISON        MOSUNNY   79  52  38 SW3       30.00S
WILLMAR        FAIR      81  52  36 SW6       30.01S
$$
MNZ033>034-036-042>043-049>051-058-059-042200-
   Central Minnesota

CITY           SKY/WX    TMP DP  RH WIND       PRES   REMARKS
ST CLOUD       MOSUNNY   80  48  32 NW6       29.98S
SAUK CENTRE    FAIR      78  50  37 W13       30.00S
PAYNESVILLE    SUNNY     76  46  34 W6        30.00S
AITKIN         SUNNY     75  52  43 N12       29.97F
PINE RIVER     SUNNY     75  54  46 NW8       30.02S
BRAINERD       SUNNY     77  51  40 N9        29.99R
STAPLES        SUNNY     79  45  29 NW12      29.99R
LONG PRAIRIE   FAIR      77  50  38 NW6       30.01R
LITCHFIELD     SUNNY     81  46  30 CALM      30.00S
BUFFALO        MOSUNNY   79  47  31 NW3       29.99S
$$
MNZ037-044-045-052-053-042200-
   East Central Minnesota

CITY           SKY/WX    TMP DP  RH WIND       PRES   REMARKS
PRINCETON      PTSUNNY   81  52  36 W7        29.98S
MORA           SUNNY     75  50  41 CALM      29.99S
CAMBRIDGE      MOSUNNY   81  57  44 W8        29.96R
RUSH CITY      MOSUNNY   78  54  43 NW6       29.97R
MOOSE LAKE     MOSUNNY   73  50  43 NW6       29.96S
HINCKLEY       FAIR      77  55  47 NW9       29.97S
CLOQUET        MOSUNNY   72  48  43 N9G18     29.98S
MCGREGOR       PTSUNNY   77  52  41 N8        29.99S
$$
MNZ071>073-080-081-089-090-097-098-042200-
   Southwest Minnesota

CITY           SKY/WX    TMP DP  RH WIND       PRES   REMARKS
MONTEVIDEO     MOSUNNY   84  54  34 CALM      30.01F
GRANITE FALLS  MOSUNNY   79  50  36 CALM      30.01F
CANBY          PTSUNNY   80  50  35 NE5       30.01S
MARSHALL       PTSUNNY   79  54  41 SE6       30.02S
REDWOOD FALLS  MOSUNNY   81  47  30 VRB6      29.99S
OLIVIA         MOSUNNY   77  50  38 W6        30.00S
PIPESTONE      PTSUNNY   75  59  57 CALM      30.02R
WINDOM         PTSUNNY   79  48  34 CALM      30.01S
WORTHINGTON    PTSUNNY   75  57  53 E6        30.02R
JACKSON        PTSUNNY   79  54  41 SE3       30.01S
TRACY          PTSUNNY   79  54  41 E3        30.01F
SLAYTON        PTSUNNY   77  55  45 CALM      30.03S
$$
MNZ065>067-074>077-082>085-091>093-042200-
   South Central Minnesota

CITY           SKY/WX    TMP DP  RH WIND       PRES   REMARKS
MANKATO        MOSUNNY   77  50  38 S3        30.00S
NEW ULM        MOSUNNY   77  45  31 SW5       30.00S
ST JAMES       MOSUNNY   79  50  36 CALM      30.00F
FAIRMONT       PTSUNNY   77  48  36 S5        29.99F
GLENCOE        SUNNY     80  51  36 SW6       29.99S
FARIBAULT      MOSUNNY   77  54  44 NW3       30.00F
OWATONNA       MOSUNNY   77  50  38 W5        30.00F
WASECA         MOSUNNY   77  48  36 CALM      30.02S
ALBERT LEA     PTSUNNY   77  52  41 NE5       30.00F
$$
MNZ078>079-086>088-094>096-042200-
   Southeast Minnesota

CITY           SKY/WX    TMP DP  RH WIND       PRES   REMARKS
ROCHESTER      PTSUNNY   76  56  49 W6        30.01F
RED WING       MOSUNNY   82  48  30 W7        29.96S
STANTON        MOSUNNY   78  52  39 W5        29.98S
DODGE CENTER   MOSUNNY   75  48  38 W3        30.01F
WINONA         MOSUNNY   77  52  41 CALM      29.98S
AUSTIN         PTSUNNY   79  52  38 CALM      30.00F
PRESTON        PTSUNNY   74  53  47 NW3       30.01F
$$
ABBREVIATIONS USED IN REMARKS
   TC - TEMPERATURES IN CELSIUS
  WCI - WIND CHILL INDEX
   HX - HEAT INDEX
  VSB - VISIBILITY
$$


USA.gov is the U.S. government's official web portal to all federal, state and local government web resources and services.